20051104,200518,2.297,32.952980,-117.313120,0.0447,16.7040,33.3190,1.1040,158714,2.7,17.804,33.293,43.706,2036.93,0.0,0.412,18.011,17.978, NaN,24.013,   NaN,17.82,1016.94,64.82,17.69,38.1,55.3,0.7,0.5,331.3,8.4,0.5,0.5,188.5, NaN,20.0,272.6,221.3,1131134719,1131134719,1,0.7,072319,072319,272.6,32.952918,-117.312968,0.37,NaN,NaN,17.808, NaN,NaN,2.5, NaN, NaN
20051104,220340,2.207,32.951370,-117.285220,0.1004,16.7550,33.3290,4.5620,165826,3.0,17.822,33.345,43.784,1878.59,0.0,0.412,17.538,17.499, NaN,24.049,   NaN,16.84,1015.68,73.48,16.79,345.9,357.3,5.3,5.1,241.1,252.7,5.0,4.7,27.3, NaN,22.0,252.0,240.2,1131141831,1131141831,1,0.2,079431,079431,252.0,32.951376,-117.285070,0.36,NaN,NaN,17.826, NaN,NaN,2.3, NaN, NaN
20051105,010359,2.059,33.239870,-117.464160,0.0426,17.8150,33.3680,0.5060,176631,2.4,18.058,33.292,43.948, 7.83,0.0,1.701,17.731,17.696, NaN,23.950,   NaN,16.50,1014.89,79.95,16.74,18.9,24.0,4.8,5.3,291.0,296.4,4.4,5.0,22.9, NaN,14.0,285.0,204.2,1131152635,1131152634,1,1.0,003835,003834,285.0,33.239773,-117.464015,0.29,NaN,NaN,18.062, NaN,NaN,2.2, NaN, NaN
20051105,043432,2.338,32.900220,-117.409870,0.0257,17.7130,33.3200,0.2120,189265,2.4,17.914,33.283,43.799, 0.94,0.0,0.692,17.645,17.608, NaN,23.978,   NaN,16.77,1015.62,80.03,17.03,68.9,69.1,2.6,1.5,351.4,4.4,2.5,1.5,NaN, NaN,17.0,265.0,223.5,1131165269,1131165269,1,0.9,016470,016469,265.0,32.900186,-117.409717,0.33,NaN,NaN,17.918, NaN,NaN,2.3, NaN, NaN
20051105,075231,1.876,32.841790,-117.546250,0.0272,17.6620,33.3190,0.2050,201148,2.5,17.857,33.259,43.716, 0.46,0.0,0.692,17.579,17.545, NaN,23.974,   NaN,16.00,1014.83,80.59,16.46,67.6,132.2,0.0,0.3,99.1,82.4,0.4,0.6,NaN, NaN,13.0,279.5,244.3,1131177153,1131177153,1,0.8,028354,028353,279.5,32.841726,-117.546113,0.13,NaN,NaN,17.861, NaN,NaN,2.1, NaN, NaN
20051105,114729,2.421,32.680990,-117.886130,0.0421,17.7920,33.3420,0.3920,215251,2.2,17.980,33.308,43.893, 0.44,0.0,1.253,17.717,17.682, NaN,23.982,   NaN,16.37,1014.40,81.24,16.66,93.5,98.9,2.0,1.8,14.9,25.6,2.1,1.9,NaN, NaN,22.0,266.3,224.5,1131191256,1131191256,1,0.6,042457,042456,266.3,32.680931,-117.885998,1.00,NaN,NaN,17.984, NaN,NaN,1.1, NaN, NaN
20051105,154943,2.292,32.519200,-118.222640,0.0280,17.7490,33.3790,0.4000,229778,2.3,17.936,33.377,43.932,493.18,0.0,1.010,17.680,17.641, NaN,24.045,   NaN,16.21,1015.21,81.60,16.44,68.7,81.8,3.3,2.3,2.6,21.2,3.1,2.3,NaN, NaN,18.0,280.3,291.1,1131205783,1131205782,1,1.0,056983,056982,280.3,32.519130,-118.222512,0.27,NaN,NaN,17.940, NaN,NaN,2.9, NaN, NaN
20051105,200356,1.986,32.346410,-118.549980,0.0238,17.2300,33.3260,0.2780,245028,2.3,17.522,33.313,43.458,2007.49,0.0,0.730,17.165,17.127, NaN,24.096,   NaN,15.96,1014.44,84.57,15.98,9.2,11.6,6.0,6.7,296.2,298.8,5.4,6.2,NaN, NaN,19.0,283.6,85.3,1131221033,1131221033,1,0.7,072234,072233,283.6,32.346325,-118.549831,0.20,NaN,NaN,17.526, NaN,NaN,1.8, NaN, NaN
20051106,002143,2.948,32.176200,-118.907930,0.0301,17.4170,33.3350,0.3060,260489,1.7,17.680,33.291,43.584,815.81,0.0,1.122,17.349,17.313, NaN,24.041,   NaN,16.10,1013.09,81.70,16.24,6.4,10.4,11.5,11.8,306.2,310.5,10.6,10.9,NaN, NaN,18.0,301.5,274.2,1131236495,1131236494,1,1.8,001295,001294,301.5,32.176083,-118.907826,NaN,NaN,NaN,17.684, NaN,NaN,2.8, NaN, NaN
20051106,050747,2.566,32.017480,-119.258200,0.0420,17.2120,33.3240,0.2780,277659,2.2,17.414,33.322,43.365, 0.22,0.0,1.271,17.141,17.102, NaN,24.129,   NaN,16.38,1014.02,78.03,16.59,7.9,12.2,9.6,10.2,317.8,322.3,8.8,9.4,NaN, NaN,15.0,312.0,287.5,1131253665,1131253664,1,1.5,018465,018464,312.0,32.017360,-119.258142,0.96,NaN,NaN,17.418, NaN,NaN,2.0, NaN, NaN
20051106,112311,2.111,31.839880,-119.585910,0.0335,17.4080,33.4280,0.3010,300171,3.2,17.585,33.425,43.650, 0.00,0.0,0.954,17.328,17.288, NaN,24.167,   NaN,15.81,1013.29,80.80,16.07,12.0,16.5,9.2,9.8,324.2,329.0,8.6,9.2,NaN, NaN,20.0,314.3,128.0,1131276176,1131276175,1,0.5,040976,040975,314.3,31.839771,-119.585800,0.03,NaN,NaN,17.589, NaN,NaN,3.2, NaN, NaN
20051106,182550,2.311,31.513110,-120.258860,0.0211,17.0020,33.2350,0.2250,325534,3.0,17.216,33.233,43.072,1045.62,0.0,0.543,16.943,16.906, NaN,24.107,   NaN,15.98,1014.72,82.79,16.18,6.9,12.2,8.9,9.3,319.2,324.8,8.3,8.8,NaN, NaN,24.0,313.3,311.0,1131301540,1131301540,1,0.9,066340,066340,313.3,31.512976,-120.258788,0.73,NaN,NaN,17.220, NaN,NaN,2.1, NaN, NaN
20051106,234411,2.752,31.178200,-120.924230,0.0309,17.7340,33.1640,0.1550,344652,3.1,17.965,33.140,43.681,618.46,0.0,0.561,17.674,17.636, NaN,23.857,   NaN,16.85,1012.97,83.95,17.02,1.1,5.6,9.6,10.1,325.7,330.5,9.0,9.5,357.9, NaN,23.0,327.6,201.7,1131320658,1131320658,1,0.5,085458,085458,327.5,31.178075,-120.924205,0.76,NaN,NaN,17.969, NaN,NaN,3.8, NaN, NaN
20051107,055921,2.243,30.858130,-121.591670,0.0273,17.3390,33.1710,0.2130,367161,3.5,17.553,33.182,43.336, 0.00,0.0,0.711,17.276,17.235, NaN,23.988,   NaN,16.58,1014.20,85.85,16.82,356.3,2.3,5.5,5.7,333.9,340.6,5.0,5.1,NaN, NaN,17.0,339.1,29.2,1131343166,1131343165,1,1.2,021566,021565,339.1,30.858015,-121.591651,1.07,NaN,NaN,17.557, NaN,NaN,2.9, NaN, NaN
20051107,121009,1.820,30.523420,-122.261260,0.0231,18.0560,33.1700,0.1460,389397,3.4,18.269,33.204,44.047, 0.00,0.0,0.487,18.001,17.964, NaN,23.831,   NaN,16.56,1014.16,86.45,16.76,351.9,354.1,4.4,4.4,323.8,326.1,3.8,3.8,NaN, NaN,21.0,334.9,350.6,1131365402,1131365402,1,0.5,043803,043802,334.9,30.523258,-122.261230,0.50,NaN,NaN,18.273, NaN,NaN,2.0, NaN, NaN
20051107,183510,2.678,30.192720,-122.924900,0.0390,18.3870,33.2240,0.1530,412502,3.4,18.612,33.209,44.382,1352.49,0.0,0.375,18.375,18.336, NaN,23.750,   NaN,18.88,1014.90,74.63,18.92,152.4,229.2,0.1,0.9,165.0,189.1,0.7,1.3,NaN, NaN,21.0,336.6,319.4,1131388508,1131388508,1,1.0,066909,066908,336.6,30.192610,-122.924890,0.89,NaN,NaN,18.616, NaN,NaN,2.7, NaN, NaN
20051108,004053,1.917,29.858880,-123.594570,0.0153,19.4030,33.5020,0.1190,434439,3.4,19.615,33.479,45.680,147.03,0.0,0.375,19.363,19.323, NaN,23.702,   NaN,17.59,1012.72,92.14,17.77,238.9,245.9,2.2,4.8,210.3,222.9,2.5,5.0,NaN, NaN,17.0,342.2,314.8,1131410445,1131410445,1,0.8,002446,002445,342.2,29.858750,-123.594563,0.89,NaN,NaN,19.620, NaN,NaN,2.1, NaN, NaN
20051108,065036,2.440,30.398800,-123.998130,0.0168,19.1420,33.4460,0.1040,456621,3.5,19.335,33.410,45.323, 0.31,0.0,0.337,19.092,19.054, NaN,23.721,   NaN,18.75,1012.71,80.07,19.01,2.8,6.1,5.9,6.3,215.6,219.3,5.3,5.7,NaN, NaN,18.0,215.6,156.8,1131432627,1131432626,1,0.8,024627,024626,215.6,30.398905,-123.997998,0.25,NaN,NaN,19.340, NaN,NaN,2.9, NaN, NaN
20051108,133248,2.195,30.748230,-123.331480,0.0226,18.1290,33.2390,0.1480,480756,3.4,18.318,33.219,44.111, 0.23,0.0,0.505,18.076,18.037, NaN,23.830,   NaN,15.90,1010.10,93.31,16.19,35.1,36.3,10.0,9.5,300.6,302.0,9.6,9.0,NaN, NaN,15.0,264.1,200.5,1131456761,1131456761,1,0.9,048761,048761,264.1,30.748205,-123.331302,1.01,NaN,NaN,18.322, NaN,NaN,2.3, NaN, NaN
20051108,202029,2.315,31.087740,-122.667450,0.0557,17.4570,33.0370,0.2310,505217,3.2,17.666,33.033,43.268,758.23,0.0,0.692,17.409,17.371, NaN,23.847,   NaN,14.44,1011.52,92.40,14.64,25.5,26.1,4.8,5.1,339.3,340.0,4.3,4.5,NaN, NaN,18.0,311.0,271.7,1131481223,1131481222,1,0.7,073223,073222,311.0,31.087613,-122.667381,0.56,NaN,NaN,17.670, NaN,NaN,2.6, NaN, NaN
20051109,035651,2.072,31.420970,-122.003970,0.0811,17.5140,33.3560,0.3240,532607,3.3,17.703,33.343,43.667, 0.00,0.0,0.879,17.440,17.404, NaN,24.076,   NaN,15.30,1011.21,77.58,15.51,357.4,0.8,9.8,10.2,310.6,314.2,9.2,9.5,NaN, NaN,15.0,313.6,235.5,1131508613,1131508612,1,1.2,014213,014212,313.2,31.420846,-122.003938,1.06,NaN,NaN,17.707, NaN,NaN,2.1, NaN, NaN
20051109,110526,2.246,31.749030,-121.324490,0.0788,17.1460,33.2530,0.2810,558330,3.2,17.335,33.246,43.202, 0.00,0.0,0.804,17.058,17.020, NaN,24.089,   NaN,15.62,1010.93,66.36,15.74,304.6,305.5,7.1,7.5,241.1,242.2,6.8,7.1,NaN, NaN,19.0,305.2,217.5,1131534336,1131534336,1,1.9,039937,039936,305.2,31.748916,-121.324398,-0.10,NaN,NaN,17.339, NaN,NaN,0.8, NaN, NaN
20051109,185751,2.461,32.099140,-120.620090,0.0790,16.0750,33.3690,0.6760,586673,3.3,16.327,33.371,42.384,2045.45,0.0,1.346,16.082,16.043, NaN,24.421,   NaN,16.29,1015.06,63.15,16.37,86.1,93.4,4.4,2.9,215.1,225.9,4.4,3.0,NaN, NaN,19.0,116.6,91.1,1131562678,1131562677,1,1.2,068278,068277,116.6,32.099272,-120.620113,1.01,NaN,NaN,16.331, NaN,NaN,2.5, NaN, NaN
20051109,234740,2.858,32.435380,-119.956280,0.0960,16.8500,33.3570,0.4530,604050,3.2,17.087,33.360,43.096,1328.93,0.0,1.402,16.843,16.801, NaN,24.235,   NaN,16.41,1014.44,66.63,16.57,68.8,75.9,5.0,2.6,196.1,211.3,4.8,2.5,NaN, NaN,20.0,117.1,57.5,1131580056,1131580056,1,1.4,085657,085656,117.1,32.435466,-119.956375,0.57,NaN,NaN,17.091, NaN,NaN,2.7, NaN, NaN
20051110,044632,2.093,32.653640,-119.465400,0.1085,17.0310,33.3900,0.2430,621971,3.3,17.248,33.377,43.271, 0.00,0.0,1.197,16.967,16.933, NaN,24.210,   NaN,16.29,1015.89,68.92,16.51,48.1,50.8,4.2,3.9,169.3,173.5,3.8,3.5,NaN, NaN,16.0,112.8,100.2,1131597976,1131597975,1,0.4,017176,017175,112.8,32.653743,-119.465566,0.77,NaN,NaN,17.252, NaN,NaN,2.4, NaN, NaN
20051110,100256,2.472,32.931290,-118.933720,0.1641,17.0540,33.4370,0.2740,640968,3.3,17.269,33.418,43.338, 0.00,0.0,1.701,16.985,16.949, NaN,24.237,   NaN,15.71,1016.13,71.73,16.07,106.9,114.8,2.8,2.4,174.9,184.6,3.1,2.8,NaN, NaN,19.0,55.6,48.5,1131616973,1131616972,1,0.9,036173,036172,55.6,32.931301,-118.933863,1.06,NaN,NaN,17.273, NaN,NaN,1.9, NaN, NaN
20051110,152031,2.154,33.188840,-118.371510,0.1793,16.0180,33.3280,0.6410,660024,3.3,16.249,33.324,42.256,1238.66,0.0,2.355,15.965,15.925, NaN,24.402,   NaN,16.84,1017.25,73.55,17.03,20.8,26.3,1.6,1.7,132.2,139.1,1.1,1.2,NaN, NaN,14.0,93.8,88.1,1131636030,1131636029,1,1.0,055230,055229,93.5,33.188900,-118.371615,0.77,NaN,NaN,16.253, NaN,NaN,2.2, NaN, NaN
20051110,181931,2.188,33.256490,-118.232530,0.1177,16.8230,33.3550,0.6570,670770,3.3,17.114,33.338,43.097,2000.01,0.0,1.495,16.988,16.955, NaN,24.212,   NaN,17.63,1017.72,68.76,17.46,102.8,104.1,2.6,1.7,185.8,189.7,2.6,1.8,NaN, NaN,20.0,76.4,96.0,1131646776,1131646775,1,0.6,065976,065975,76.4,33.256540,-118.232653,0.39,NaN,NaN,17.118, NaN,NaN,2.5, NaN, NaN
20051110,223742,2.656,33.418500,-117.902000,0.2282,17.8730,33.3300,2.9860,686258,3.3,18.170,33.319,44.088,1303.78,0.0,3.364,17.952,17.912, NaN,23.944,   NaN,17.19,1015.58,65.62,17.21,91.1,76.2,3.6,1.9,180.1,173.6,3.6,1.9,625.5, NaN,18.0,86.2,23.2,1131662263,1131662263,1,0.2,081463,081463,86.2,33.418546,-117.902146,0.94,NaN,NaN,18.174, NaN,NaN,2.5, NaN, NaN
20051111,012011,2.220,33.493480,-117.750700,0.3841,17.6960,33.3460,2.4100,696014,3.3,17.912,33.336,43.860, 0.00,0.0,3.793,17.681,17.639, NaN,24.019,   NaN,16.57,1015.81,71.68,16.85,346.5,350.9,2.2,2.1,208.9,213.7,2.0,1.9,NaN, NaN,17.0,223.8,163.7,1131672019,1131672019,1,0.0,004819,004819,223.8,33.493540,-117.750545,0.08,NaN,NaN,17.916, NaN,NaN,2.0, NaN, NaN
20051111,021324,1.664,33.485080,-117.768390,0.3457,17.5260,33.3410,1.8610,699194,3.3,17.756,33.337,43.712, 0.00,0.0,3.233,17.489,17.446, NaN,24.058,   NaN,16.43,1015.66,73.13,16.79,146.4,151.5,1.0,0.9,49.5,53.6,1.3,1.3,NaN, NaN,13.0,256.0,291.1,1131675200,1131675200,1,0.7,008000,008000,256.0,33.485080,-117.768230,0.40,NaN,NaN,17.760, NaN,NaN,1.8, NaN, NaN
20051111,052920,2.116,33.671700,-118.085920,0.2775,17.6030,33.3510,1.1450,710960,3.3,17.817,33.352,43.787, 0.00,0.0,2.467,17.556,17.517, NaN,24.055,   NaN,16.14,1016.87,83.06,16.39,320.4,315.9,4.5,4.7,197.7,193.1,4.3,4.5,20.1, NaN,13.0,234.5,305.1,1131686966,1131686965,1,0.5,019766,019765,234.5,33.671768,-118.085803,0.18,NaN,NaN,17.821, NaN,NaN,2.2, NaN, NaN
20051111,091255,2.149,33.888160,-118.443790,0.1806,17.1800,33.3380,0.9330,724377,3.3,17.381,33.331,43.344, 0.00,0.0,1.869,17.130,17.089, NaN,24.143,   NaN,15.68,1016.58,80.26,15.97,35.1,36.3,2.4,2.3,312.9,314.3,2.2,2.2,NaN, NaN,14.0,270.3,268.4,1131700383,1131700383,1,0.4,033183,033183,270.3,33.888110,-118.443668,0.44,NaN,NaN,17.385, NaN,NaN,2.3, NaN, NaN
20051111,113002,2.380,33.887040,-118.493850,0.2294,17.2860,33.3410,2.3110,732601,3.2,17.470,33.318,43.415, 0.00,0.0,2.411,17.199,17.165, NaN,24.112,   NaN,14.55,1016.65,77.21,14.94,231.6,226.7,0.9,1.6,53.2,55.9,1.2,1.9,NaN, NaN,18.0,197.0,228.7,1131708607,1131708607,1,0.4,041407,041407,197.0,33.887135,-118.493748,0.28,NaN,NaN,17.474, NaN,NaN,2.0, NaN, NaN
20051111,132608,1.848,33.822870,-118.640950,0.2922,17.0700,33.3240,2.2410,739565,3.3,17.275,33.315,43.224, 0.00,0.0,3.214,17.008,16.968, NaN,24.157,   NaN,15.35,1017.30,83.81,15.60,58.8,63.8,3.4,2.3,314.9,324.3,3.1,2.1,NaN, NaN,13.0,254.1,232.1,1131715571,1131715571,1,1.0,048371,048371,254.1,33.822850,-118.640841,0.75,NaN,NaN,17.279, NaN,NaN,1.6, NaN, NaN
20051111,181906,2.459,33.657220,-119.006560,0.1686,15.7050,33.3530,1.0000,757155,3.3,16.028,33.384,42.113,1891.37,0.0,1.738,15.959,15.922, NaN,24.498,   NaN,16.94,1019.37,72.46,17.24,116.5,128.4,0.9,1.1,68.4,73.1,1.5,1.7,NaN, NaN,19.0,285.8,274.9,1131733160,1131733160,1,1.5,065960,065960,285.8,33.657151,-119.006625,1.23,NaN,NaN,16.032, NaN,NaN,2.2, NaN, NaN
20051111,222427,2.175,33.492650,-119.322280,0.4237,15.5430,33.3960,1.4370,771862,3.2,15.867,33.363,41.937,1815.62,0.0,3.980,15.447,15.400, NaN,24.519,   NaN,18.52,1018.20,69.20,18.25,132.0,141.5,0.6,0.8,60.8,60.0,0.8,1.0,NaN, NaN,14.0,268.8,218.1,1131747867,1131747866,1,0.3,080667,080666,268.8,33.492630,-119.322148,0.23,NaN,NaN,15.871, NaN,NaN,2.2, NaN, NaN
20051112,032622,2.779,33.321200,-119.666630,0.6839,14.5260,33.3230,2.7740,789991,3.1,14.782,33.311,40.854, 0.00,0.0,6.651,14.463,14.420, NaN,24.717,   NaN,14.45,1018.48,86.76,14.67,347.4,351.5,14.0,13.0,312.6,316.8,13.5,12.5,NaN, NaN,16.0,323.8,3.8,1131765995,1131765995,1,1.0,012395,012395,323.8,33.321142,-119.666616,0.80,NaN,NaN,14.786, NaN,NaN,3.0, NaN, NaN
20051112,075732,2.612,33.151000,-120.023090,0.2304,15.1850,33.3450,0.4040,806260,3.8,15.387,33.330,41.446, 0.00,0.0,2.205,15.102,15.062, NaN,24.600,   NaN,14.45,1019.27,82.69,14.70,19.6,21.9,13.0,14.1,323.9,326.2,12.4,13.6,NaN, NaN,14.0,302.8,210.6,1131782266,1131782266,1,1.4,028666,028666,302.8,33.150828,-120.023072,0.35,NaN,NaN,15.391, NaN,NaN,2.1, NaN, NaN
20051112,122440,3.138,32.997880,-120.364020,0.3101,15.6770,33.3510,0.5350,822285,3.9,15.880,33.354,41.939, 0.00,0.0,3.083,15.612,15.572, NaN,24.508,   NaN,13.60,1019.30,91.36,13.82,9.5,13.6,14.2,14.5,320.7,324.9,13.6,13.9,NaN, NaN,11.0,311.8,288.8,1131798290,1131798289,1,1.0,044690,044689,311.8,32.997818,-120.363995,0.55,NaN,NaN,15.884, NaN,NaN,3.1, NaN, NaN
20051112,192523,2.384,32.655700,-121.042710,0.1365,15.4200,33.3250,0.6420,847526,3.5,15.673,33.322,41.708,1276.26,0.0,1.776,15.361,15.324, NaN,24.531,   NaN,14.67,1020.71,83.70,14.87,357.2,2.8,10.1,10.4,321.2,327.2,9.5,9.7,NaN, NaN,21.0,322.2,344.2,1131823532,1131823531,1,0.5,069932,069931,322.2,32.655580,-121.042728,1.00,NaN,NaN,15.677, NaN,NaN,3.1, NaN, NaN
20051113,020849,2.724,32.336600,-121.720260,0.1144,16.9070,33.2530,0.3120,871718,3.6,17.119,33.252,43.003, 0.00,0.0,1.122,16.832,16.793, NaN,24.145,   NaN,15.65,1019.40,82.12,15.88,353.7,1.3,11.6,11.6,320.9,328.4,11.0,11.0,NaN, NaN,12.0,325.6,313.4,1131847723,1131847722,1,1.0,007723,007722,325.6,32.336485,-121.720215,0.62,NaN,NaN,17.123, NaN,NaN,2.5, NaN, NaN
20051113,090641,2.779,31.995280,-122.421770,0.0780,17.1470,33.2510,0.2170,896780,3.7,17.339,33.261,43.223, 0.00,0.0,0.748,17.079,17.038, NaN,24.100,   NaN,15.83,1020.70,85.62,16.09,12.2,16.8,9.6,10.3,344.5,349.4,8.7,9.5,NaN, NaN,16.0,333.9,283.9,1131872785,1131872785,1,2.4,032785,032785,333.9,31.995126,-122.421708,1.13,NaN,NaN,17.343, NaN,NaN,2.2, NaN, NaN
20051113,181344,2.536,31.664780,-123.078030,0.0542,16.8590,33.1760,0.3170,929617,3.6,17.101,33.200,42.924,1883.44,0.0,0.860,16.837,16.795, NaN,24.109,   NaN,16.67,1022.56,82.14,16.79,9.9,12.3,11.9,12.5,4.0,6.5,11.4,12.0,NaN, NaN,21.0,354.7,278.7,1131905623,1131905622,1,2.4,065623,065622,354.6,31.664670,-123.078113,0.26,NaN,NaN,17.105, NaN,NaN,2.2, NaN, NaN
20051114,001006,2.320,31.330360,-123.756090,0.0822,17.4500,33.0280,0.1750,950990,4.5,17.726,32.996,43.282,1168.57,0.0,0.916,17.379,17.340, NaN,23.804,   NaN,17.08,1020.61,82.03,17.25,17.4,21.0,12.5,13.6,8.3,12.0,11.8,12.9,NaN, NaN,18.0,349.3,279.6,1131926996,1131926996,1,1.4,000596,000596,349.3,31.330233,-123.756103,1.15,NaN,NaN,17.730, NaN,NaN,3.5, NaN, NaN
20051114,085200,3.175,31.915430,-124.178070,0.0565,17.7960,33.1280,0.1480,982322,6.4,18.030,33.113,43.711, 0.00,0.0,0.617,17.725,17.684, NaN,23.820,   NaN,16.57,1021.79,90.96,16.77,13.4,17.6,13.9,14.5,8.5,12.9,13.3,13.9,NaN, NaN,18.0,357.5,313.5,1131958327,1131958327,1,1.5,031928,031927,357.5,31.915321,-124.178160,0.72,NaN,NaN,18.034, NaN,NaN,3.8, NaN, NaN
20051115,185118,2.366,33.264350,-121.447040,0.2162,15.1280,33.2980,0.7380,1104665,6.9,15.440,33.271,41.430,812.92,0.0,2.542,15.078,15.036, NaN,24.543,   NaN,13.38,1016.94,99.23,13.59,125.3,131.0,4.6,4.7,104.6,109.5,5.1,5.2,NaN, NaN,18.0,329.6,43.1,1132080672,1132080671,1,1.9,067872,067871,329.6,33.264227,-121.447001,0.69,NaN,NaN,15.444, NaN,NaN,3.5, NaN, NaN
20051116,025732,2.821,33.579220,-120.752900,1.5420,14.2410,33.3830,8.7370,1133848,6.9,14.556,33.359,40.695, 0.00,0.0,13.227,14.167,14.129, NaN,24.803,   NaN,11.34,1017.51,99.60,11.71,67.8,67.7,1.6,1.4,50.0,51.3,1.5,1.3,NaN, NaN,10.0,329.7,120.8,1132109853,1132109853,1,0.9,010653,010653,329.7,33.579071,-120.752846,0.48,NaN,NaN,14.559, NaN,NaN,2.8, NaN, NaN
20051116,061731,2.803,33.752660,-120.416950,0.7174,15.0430,33.3450,4.7450,1145855,6.9,15.336,33.319,41.386, 0.00,0.0,6.801,14.953,14.914, NaN,24.603,   NaN,18.78,1017.53,54.08,18.95,92.0,77.2,5.5,3.6,73.3,61.1,5.6,3.5,NaN, NaN,17.0,338.0,247.7,1132121860,1132121859,1,1.1,022660,022659,338.2,33.752525,-120.416983,-0.26,NaN,NaN,15.340, NaN,NaN,2.6, NaN, NaN
20051116,102153,2.293,33.878610,-120.140500,0.6546,14.9010,33.3700,2.2040,1160503,6.8,15.192,33.344,41.277, 0.00,0.0,6.297,14.815,14.778, NaN,24.654,   NaN,19.77,1017.57,47.60,19.88,1.8,2.8,9.4,9.5,90.2,91.3,9.1,9.3,NaN, NaN,16.0,91.0,197.9,1132136507,1132136507,1,0.5,037308,037307,91.0,33.878663,-120.140627,0.29,NaN,NaN,15.196, NaN,NaN,2.9, NaN, NaN
20051116,183657,1.893,34.187340,-119.518000,0.1720,16.1920,33.3360,2.7990,1190216,6.9,16.530,33.321,42.520,2037.19,0.0,2.672,16.253,16.214, NaN,24.335,   NaN,20.91,1019.20,43.25,20.92,334.2,333.4,4.1,3.9,83.1,82.2,3.9,3.8,NaN, NaN,15.0,117.5,336.5,1132166221,1132166221,1,0.4,067022,067021,117.5,34.187487,-119.518133,0.23,NaN,NaN,16.534, NaN,NaN,2.0, NaN, NaN
20051116,204353,2.648,34.228180,-119.392190,0.0931,17.3510,33.3380,1.1080,1197841,6.8,17.584,33.333,43.542,1950.94,0.0,1.421,17.401,17.359, NaN,24.097,   NaN,18.52,1017.96,74.51,18.63,83.5,268.7,0.2,3.6,211.4,303.9,0.5,3.7,NaN, NaN,16.0,44.2,101.7,1132173846,1132173846,1,1.0,074647,074646,44.2,34.228140,-119.392240,0.59,NaN,NaN,17.588, NaN,NaN,2.8, NaN, NaN
20051116,212911,2.280,34.247090,-119.346620,0.1681,17.2610,33.3430,1.2150,1200543,6.9,17.675,33.322,43.616,1951.13,0.0,1.664,17.364,17.322, NaN,24.066,   NaN,18.75,1017.27,73.22,18.91,41.8,48.0,5.1,4.6,295.8,302.7,4.8,4.4,22.1, NaN,15.0,250.2,183.7,1132176548,1132176547,1,0.8,077348,077347,250.2,34.247082,-119.346437,0.20,NaN,NaN,17.679, NaN,NaN,2.5, NaN, NaN
20051117,005404,2.317,34.400530,-119.799520,0.8907,16.8200,33.2740,6.9720,1212847,6.8,17.244,33.238,43.105,29.89,0.0,9.005,16.839,16.794, NaN,24.104,   NaN,18.58,1017.49,60.80,18.84,74.9,76.1,4.1,3.0,264.8,268.4,4.0,2.9,32.2, NaN,12.0,184.5,153.4,1132188853,1132188853,1,0.6,003253,003253,184.5,34.400602,-119.799385,0.65,NaN,NaN,17.248, NaN,NaN,2.5, NaN, NaN
20051117,034723,2.243,34.272530,-120.031360,0.4199,16.1500,33.3520,1.9670,1223232,6.7,16.473,33.349,42.498, 0.00,0.0,3.961,16.114,16.072, NaN,24.370,   NaN,15.77,1017.81,83.07,16.02,27.8,31.6,6.6,6.0,261.9,266.2,6.2,5.6,NaN, NaN,12.0,239.2,197.5,1132199237,1132199237,1,1.1,013638,013637,239.2,34.272565,-120.031212,0.71,NaN,NaN,16.477, NaN,NaN,2.4, NaN, NaN
20051117,081536,2.120,34.462760,-120.487980,0.3421,16.7300,33.3350,1.9710,1239322,6.7,17.058,33.309,43.009, 0.00,0.0,2.691,16.681,16.642, NaN,24.203,   NaN,18.64,1017.73,50.07,18.84,42.9,45.5,1.0,1.0,306.8,309.7,0.8,0.8,25.9, NaN,13.0,247.2,322.2,1132215327,1132215327,1,0.3,029728,029727,247.2,34.462740,-120.487788,0.20,NaN,NaN,17.062, NaN,NaN,2.1, NaN, NaN
20051117,092222,2.071,34.447240,-120.526300,0.2558,16.2220,33.3210,1.4630,1243343,6.7,16.530,33.310,42.507, 0.00,0.0,2.355,16.168,16.126, NaN,24.327,   NaN,16.03,1017.47,80.31,16.28,22.3,26.2,6.0,6.6,304.9,308.8,5.7,6.2,NaN, NaN,15.0,278.7,200.3,1132219348,1132219347,1,0.9,033748,033747,278.7,34.447133,-120.526173,0.03,NaN,NaN,16.534, NaN,NaN,2.1, NaN, NaN
20051117,131902,2.260,34.318720,-120.813270,0.6631,14.0070,33.3760,6.8800,1257541,6.6,14.333,33.366,40.492, 0.00,0.0,7.324,13.965,13.917, NaN,24.855,   NaN,13.07,1017.78,99.81,13.34,354.8,1.3,6.1,6.4,275.7,283.0,5.5,5.7,NaN, NaN,14.0,283.3,290.3,1132233546,1132233545,1,0.6,047946,047945,283.3,34.318628,-120.813198,0.81,NaN,NaN,14.336, NaN,NaN,2.7, NaN, NaN
20051117,190924,2.044,34.142380,-121.169570,0.6630,13.9360,33.3030,9.0880,1278550,6.7,14.271,33.306,40.369,877.14,0.0,9.902,13.884,13.839, NaN,24.821,   NaN,12.89,1018.91,99.40,13.10,2.8,8.0,7.1,7.3,319.3,325.0,6.6,6.7,NaN, NaN,11.0,319.0,281.4,1132254556,1132254555,1,1.0,068956,068955,319.0,34.142237,-121.169533,1.08,NaN,NaN,14.274, NaN,NaN,1.9, NaN, NaN
20051118,000730,2.619,33.814940,-121.856420,0.5380,15.2200,33.2780,1.0790,1296438,6.7,15.564,33.273,41.549,169.69,0.0,6.409,15.173,15.130, NaN,24.517,   NaN,13.13,1017.34,98.62,13.40,23.9,28.0,4.9,5.3,330.4,334.7,4.4,4.9,NaN, NaN,12.0,306.2,270.4,1132272444,1132272443,1,1.2,000444,000443,306.2,33.814840,-121.856356,0.41,NaN,NaN,15.568, NaN,NaN,2.3, NaN, NaN
20051118,062421,2.321,33.489120,-122.544270,0.1297,16.6250,33.2200,0.2770,1319067,6.9,16.910,33.201,42.743, 0.00,0.0,1.253,16.554,16.516, NaN,24.155,   NaN,13.32,1018.74,100.00,13.67,17.5,20.9,6.1,6.4,343.6,347.2,5.7,6.0,NaN, NaN,15.0,310.3,318.2,1132295073,1132295073,1,0.7,023073,023073,310.3,33.489053,-122.544278,0.31,NaN,NaN,16.914, NaN,NaN,2.1, NaN, NaN
20051118,124440,2.349,33.157520,-123.234850,0.1837,16.3210,33.0170,0.2840,1341880,6.9,16.619,33.017,42.257, 0.00,0.0,1.776,16.253,16.213, NaN,24.082,   NaN,13.48,1019.30,100.00,13.55,290.2,281.9,2.1,4.4,229.8,240.8,2.1,4.3,NaN, NaN,15.0,324.7,296.1,1132317886,1132317886,1,0.6,045886,045886,324.7,33.157410,-123.234847,0.81,NaN,NaN,16.623, NaN,NaN,2.3, NaN, NaN
20051118,191254,2.064,32.826090,-123.913220,0.0452,17.1420,32.9570,0.2170,1365174,6.5,17.377,32.943,42.889,1154.17,0.0,0.636,17.144,17.103, NaN,23.847,   NaN,16.85,1020.14,86.98,17.19,293.7,286.3,2.5,3.5,264.9,260.5,2.3,3.4,NaN, NaN,15.0,345.5,325.3,1132341180,1132341180,1,1.1,069180,069180,345.8,32.826036,-123.913321,0.92,NaN,NaN,17.381, NaN,NaN,2.1, NaN, NaN
20051119,012732,2.376,33.385340,-124.326160,0.0592,17.7280,33.1390,0.1550,1387631,6.6,18.050,33.112,43.727, 1.37,0.0,0.580,17.677,17.635, NaN,23.814,   NaN,16.80,1018.36,89.85,17.07,24.3,28.2,6.2,6.8,16.3,20.3,5.9,6.5,NaN, NaN,16.0,356.3,291.6,1132363636,1132363636,1,0.4,005237,005236,356.5,33.385183,-124.326185,0.70,NaN,NaN,18.054, NaN,NaN,2.7, NaN, NaN
20051119,132043,2.314,34.065730,-122.943460,0.4163,15.9090,33.2450,0.7020,1430433,6.3,16.203,33.227,42.103, 0.00,0.0,3.812,15.848,15.808, NaN,24.338,   NaN,16.49,1017.52,77.76,16.80,46.5,51.0,3.7,3.3,51.9,57.7,3.3,3.0,NaN, NaN,15.0,356.5,347.0,1132406438,1132406438,1,0.5,048038,048038,356.6,34.065617,-122.943511,0.75,NaN,NaN,16.207, NaN,NaN,2.3, NaN, NaN
20051119,192713,2.003,34.390490,-122.250820,0.1546,15.1960,33.2170,0.7360,1452433,6.3,15.723,33.158,41.571,571.93,0.0,2.019,15.395,15.351, NaN,24.393,   NaN,16.90,1017.53,69.54,17.11,42.5,46.3,3.8,3.4,19.2,23.8,3.5,3.1,NaN, NaN,16.0,328.1,333.3,1132428438,1132428438,1,0.4,070039,070038,328.1,34.390398,-122.250813,0.54,NaN,NaN,15.727, NaN,NaN,1.9, NaN, NaN